| time (UTC) | temp C | wind direction | speed KPH | gust KPH | rain 1hr cm | rain 24hr cm | rain mn cm | humidity % | barometer mb |
| 20260901124520 | 21 | 51 | 0.0 | 12.9 | 0.00 | 0.00 | 0.00 | 93 | 1019.7 |
| 20260901123025 | 21 | 51 | 0.0 | 0.0 | 0.00 | 0.00 | 0.00 | 94 | 1019.5 |
| 20260901121515 | 20 | 51 | 0.0 | 0.0 | 0.00 | 0.00 | 0.00 | 96 | 1019.4 |
| 20260901120014 | 19 | 51 | 0.0 | 0.0 | 0.00 | 0.00 | 0.00 | 97 | 1019.2 |
| 20260901114512 | 18 | 51 | 0.0 | 0.0 | 0.00 | 0.00 | 0.00 | 97 | 1019.0 |
| 20260901113012 | 18 | 51 | 0.0 | 0.0 | 0.00 | 0.00 | 0.00 | 97 | 1018.9 |
| 20260901111511 | 18 | 51 | 0.0 | 0.0 | 0.00 | 0.00 | 0.00 | 97 | 1018.8 |
| 20260901110015 | 18 | 51 | 0.0 | 0.0 | 0.00 | 0.00 | 0.00 | 97 | 1018.7 |
| 20260901104510 | 18 | 51 | 0.0 | 0.0 | 0.00 | 0.00 | 0.00 | 97 | 1018.7 |
| 20260901103016 | 18 | 51 | 0.0 | 0.0 | 0.00 | 0.00 | 0.00 | 97 | 1018.7 |
| 20260901101521 | 18 | 51 | 0.0 | 0.0 | 0.00 | 0.00 | 0.00 | 97 | 1018.5 |
| 20260901100008 | 18 | 51 | 0.0 | 0.0 | 0.00 | 0.00 | 0.00 | 97 | 1018.5 |
| 20260901094507 | 18 | 51 | 0.0 | 0.0 | 0.00 | 0.00 | 0.00 | 97 | 1018.4 |
| 20260901093005 | 18 | 51 | 0.0 | 0.0 | 0.00 | 0.00 | 0.00 | 96 | 1018.4 |
| 20260901091506 | 19 | 51 | 0.0 | 0.0 | 0.00 | 0.00 | 0.00 | 97 | 1018.2 |
| 20260901090010 | 18 | 51 | 0.0 | 0.0 | 0.00 | 0.00 | 0.00 | 97 | 1018.2 |
| 20260901084502 | 19 | 51 | 0.0 | 0.0 | 0.00 | 0.00 | 0.00 | 97 | 1018.2 |
| 20260901083002 | 19 | 51 | 0.0 | 0.0 | 0.00 | 0.00 | 0.00 | 97 | 1018.4 |
| 20260901081501 | 19 | 51 | 0.0 | 0.0 | 0.00 | 0.00 | 0.00 | 97 | 1018.3 |
| 20260901074603 | 19 | 51 | 0.0 | 0.0 | 0.00 | 0.00 | 0.00 | 96 | 1018.3 |
| 20260901073058 | 19 | 51 | 0.0 | 0.0 | 0.00 | 0.00 | 0.00 | 96 | 1018.4 |
| 20260901071557 | 19 | 51 | 0.0 | 0.0 | 0.00 | 0.00 | 0.00 | 96 | 1018.5 |
| 20260901070058 | 19 | 51 | 0.0 | 0.0 | 0.00 | 0.00 | 0.00 | 96 | 1018.6 |
| 20260901064554 | 20 | 51 | 0.0 | 0.0 | 0.00 | 0.00 | 0.00 | 96 | 1018.8 |
| 20260901063054 | 20 | 51 | 0.0 | 0.0 | 0.00 | 0.00 | 0.00 | 97 | 1018.7 |
| 20260901061553 | 20 | 51 | 0.0 | 0.0 | 0.00 | 0.00 | 0.00 | 95 | 1018.8 |
| 20260901060051 | 20 | 51 | 0.0 | 0.0 | 0.00 | 0.00 | 0.00 | 95 | 1018.8 |
| 20260901054550 | 20 | 51 | 0.0 | 0.0 | 0.00 | 0.00 | 0.00 | 95 | 1018.9 |
| 20260901053100 | 20 | 51 | 0.0 | 0.0 | 0.00 | 0.00 | 0.00 | 95 | 1018.9 |
| 20260901051550 | 20 | 51 | 0.0 | 0.0 | 0.00 | 0.00 | 0.00 | 95 | 1019.0 |
| 20260901050046 | 20 | 51 | 0.0 | 0.0 | 0.00 | 0.00 | 0.00 | 94 | 1019.1 |
| 20260901044559 | 20 | 51 | 0.0 | 0.0 | 0.00 | 0.00 | 0.00 | 95 | 1018.9 |
| 20260901043044 | 20 | 51 | 0.0 | 0.0 | 0.00 | 0.00 | 0.00 | 94 | 1018.8 |
| 20260901041542 | 20 | 51 | 0.0 | 0.0 | 0.00 | 0.00 | 0.00 | 94 | 1018.8 |
| 20260901040039 | 21 | 51 | 0.0 | 0.0 | 0.00 | 0.00 | 0.00 | 94 | 1018.7 |
| 20260901034537 | 20 | 51 | 0.0 | 0.0 | 0.00 | 0.00 | 0.00 | 94 | 1018.5 |
| 20260901033037 | 20 | 51 | 0.0 | 0.0 | 0.00 | 0.00 | 0.00 | 92 | 1018.6 |
| 20260901031537 | 21 | 51 | 0.0 | 0.0 | 0.00 | 0.00 | 0.00 | 92 | 1018.7 |
| 20260901030047 | 21 | 51 | 0.0 | 0.0 | 0.00 | 0.00 | 0.00 | 92 | 1018.7 |
| 20260901024538 | 21 | 51 | 0.0 | 0.0 | 0.00 | 0.00 | 0.00 | 92 | 1018.7 |
| 20260901023036 | 21 | 51 | 0.0 | 0.0 | 0.00 | 0.00 | 0.00 | 91 | 1018.6 |
| 20260901021535 | 21 | 51 | 0.0 | 0.0 | 0.00 | 0.00 | 0.00 | 91 | 1018.5 |
| 20260901020035 | 22 | 51 | 0.0 | 0.0 | 0.00 | 0.00 | 0.00 | 90 | 1018.4 |
| 20260901014540 | 22 | 51 | 0.0 | 0.0 | 0.00 | 0.00 | 0.00 | 90 | 1018.2 |
| 20260901013034 | 22 | 51 | 0.0 | 0.0 | 0.00 | 0.00 | 0.00 | 90 | 1018.2 |
| 20260901011533 | 22 | 51 | 0.0 | 0.0 | 0.00 | 0.00 | 0.00 | 90 | 1017.9 |
| 20260901010034 | 22 | 51 | 0.0 | 0.0 | 0.00 | 0.00 | 0.00 | 89 | 1017.6 |
| 20260901004537 | 23 | 51 | 0.0 | 0.0 | 0.00 | 0.00 | 0.00 | 88 | 1017.5 |
| 20260901003036 | 23 | 51 | 0.0 | 0.0 | 0.00 | 0.00 | 0.00 | 87 | 1017.5 |
| 20260901001532 | 23 | 51 | 0.0 | 0.0 | 0.00 | 0.00 | 0.00 | 84 | 1017.5 |
| 20260901000031 | 24 | 51 | 0.0 | 6.4 | 0.00 | 0.00 | 0.00 | 82 | 1017.5 |
| 20260831234531 | 24 | 51 | 0.0 | 4.8 | 0.00 | 0.00 | 0.00 | 81 | 1017.4 |
| 20260831233030 | 25 | 51 | 0.0 | 0.0 | 0.00 | 0.00 | 0.00 | 80 | 1017.6 |
| 20260831231529 | 25 | 51 | 0.0 | 0.0 | 0.00 | 0.00 | 0.00 | 77 | 1017.5 |
| 20260831230036 | 26 | 51 | 0.0 | 0.0 | 0.00 | 0.00 | 0.00 | 76 | 1017.5 |
| 20260831224528 | 25 | 51 | 0.0 | 1.6 | 0.00 | 0.00 | 0.00 | 78 | 1017.5 |
| 20260831223029 | 25 | 51 | 0.0 | 12.9 | 0.00 | 0.00 | 0.00 | 77 | 1017.7 |
| 20260831221534 | 26 | 51 | 1.6 | 16.1 | 0.00 | 0.00 | 0.00 | 75 | 1017.7 |
| 20260831220031 | 27 | 50 | 0.0 | 0.0 | 0.00 | 0.00 | 0.00 | 79 | 1017.6 |
| 20260831214544 | 27 | 50 | 0.0 | 0.0 | 0.00 | 0.00 | 0.00 | 77 | 1017.6 |
| 20260831213025 | 27 | 50 | 0.0 | 0.0 | 0.00 | 0.00 | 0.00 | 74 | 1017.7 |
| 20260831211525 | 29 | 50 | 0.0 | 6.4 | 0.00 | 0.00 | 0.00 | 67 | 1017.5 |
| 20260831210028 | 30 | 49 | 1.6 | 8.0 | 0.00 | 0.00 | 0.00 | 61 | 1017.4 |
| 20260831204523 | 31 | 49 | 0.0 | 0.0 | 0.00 | 0.00 | 0.00 | 50 | 1017.4 |
| 20260831203022 | 31 | 49 | 0.0 | 4.8 | 0.00 | 0.00 | 0.00 | 53 | 1017.5 |
| 20260831201529 | 30 | 49 | 0.0 | 1.6 | 0.00 | 0.00 | 0.00 | 51 | 1017.5 |
| 20260831200035 | 30 | 50 | 0.0 | 8.0 | 0.00 | 0.00 | 0.00 | 54 | 1017.8 |
| 20260831194518 | 30 | 50 | 0.0 | 0.0 | 0.00 | 0.00 | 0.00 | 55 | 1017.9 |
| 20260831193016 | 31 | 49 | 0.0 | 1.6 | 0.00 | 0.00 | 0.00 | 56 | 1018.0 |
| 20260831191515 | 31 | 49 | 0.0 | 0.0 | 0.00 | 0.00 | 0.00 | 56 | 1018.2 |
| 20260831190015 | 30 | 49 | 0.0 | 4.8 | 0.00 | 0.00 | 0.00 | 54 | 1018.3 |
| 20260831184517 | 30 | 50 | 0.0 | 1.6 | 0.00 | 0.00 | 0.00 | 52 | 1018.6 |
| 20260831183009 | 30 | 49 | 0.0 | 3.2 | 0.00 | 0.00 | 0.00 | 57 | 1018.7 |
| 20260831181508 | 29 | 49 | 0.0 | 6.4 | 0.00 | 0.00 | 0.00 | 57 | 1018.8 |
| 20260831180006 | 29 | 49 | 0.0 | 6.4 | 0.00 | 0.00 | 0.00 | 61 | 1018.9 |
| 20260831174505 | 30 | 50 | 0.0 | 8.0 | 0.00 | 0.00 | 0.00 | 63 | 1019.1 |
| 20260831173005 | 30 | 49 | 1.6 | 4.8 | 0.00 | 0.00 | 0.00 | 59 | 1019.2 |
| 20260831171502 | 30 | 49 | 0.0 | 0.0 | 0.00 | 0.00 | 0.00 | 65 | 1019.3 |
| 20260831170003 | 29 | 50 | 1.6 | 9.7 | 0.00 | 0.00 | 0.00 | 66 | 1019.3 |
| 20260831164607 | 29 | 50 | 0.0 | 0.0 | 0.00 | 0.00 | 0.00 | 66 | 1019.4 |
| 20260831163059 | 28 | 49 | 0.0 | 0.0 | 0.00 | 0.00 | 0.00 | 70 | 1019.5 |
| 20260831161557 | 28 | 50 | 0.0 | 0.0 | 0.00 | 0.00 | 0.00 | 68 | 1019.6 |
| 20260831160055 | 27 | 49 | 0.0 | 0.0 | 0.00 | 0.00 | 0.00 | 71 | 1019.8 |
| 20260831154606 | 27 | 50 | 0.0 | 0.0 | 0.00 | 0.00 | 0.00 | 73 | 1020.1 |
| 20260831153056 | 28 | 50 | 0.0 | 0.0 | 0.00 | 0.00 | 0.00 | 74 | 1020.1 |
| 20260831151553 | 27 | 50 | 0.0 | 0.0 | 0.00 | 0.00 | 0.00 | 77 | 1020.1 |
| 20260831150052 | 27 | 50 | 0.0 | 0.0 | 0.00 | 0.00 | 0.00 | 75 | 1020.2 |
| 20260831144552 | 28 | 50 | 0.0 | 0.0 | 0.00 | 0.00 | 0.00 | 76 | 1020.2 |
| 20260831143053 | 27 | 49 | 0.0 | 0.0 | 0.00 | 0.00 | 0.00 | 77 | 1020.1 |
| 20260831141544 | 26 | 50 | 0.0 | 0.0 | 0.00 | 0.00 | 0.00 | 79 | 1020.1 |
| 20260831140042 | 25 | 50 | 0.0 | 1.6 | 0.00 | 0.00 | 0.00 | 83 | 1019.9 |
| 20260831134541 | 25 | 50 | 0.0 | 1.6 | 0.00 | 0.00 | 0.00 | 82 | 1019.9 |
| 20260831133040 | 24 | 50 | 0.0 | 1.6 | 0.00 | 0.00 | 0.00 | 85 | 1020.0 |
| 20260831131542 | 23 | 49 | 0.0 | 1.6 | 0.00 | 0.00 | 0.00 | 88 | 1020.1 |
| 20260831130037 | 22 | 50 | 0.0 | 1.6 | 0.00 | 0.00 | 0.00 | 90 | 1020.1 |